STARLINK-34870, 65370

Orbit data source: Space-Track

STARLINK-34870, 65370 is a payload satellite owned by SpaceX/Seattle (US) in LEO that was launched on Thu, 28 Aug 2025 UTC via an FALCON 9 launch vehicle from the Air Force Eastern Test Range (AFETR). Payload-class satellites include a variety of spacecraft equipped with specific instruments for various scientific and technological missions. These include communications satellites like Starlink; space stations such as the ISS; scientific satellites like the Hubble; Earth observation satellites from companies like Planet Labs, Umbra, and HawkEye 360; GPS; miniature CubeSats for education and research; and military/defense satellites.

Loading next visibility...
Identifier
65370, 2025-190V
Orbit
LEO
Country
Flag of USUS
Related business
Manufacturer
SpaceX/Seattle
Mission
Operational Commercial Communications
Bus & Motor
STARLINK V2MO, Unknown motor
Mass
575 kg wet, ~530 kg dry
Launch date (UTC)
2025-08-28 (7 months ago)
Launch vehicle
FALCON 9
Launch site
Air Force Eastern Test Range (AFETR)
Object type
Payload
Rocket body
Debris
Shape & HBR
Box + 2 Pan, 17.7 m
Radar Cross Section
36.964 m², Large (>1 m²)

Expand to show TLE details & history
Last TLE update: 7 hours ago

TLE from 7 hours ago
0 STARLINK-34870
1 65370U 25190V   26094.27863178  .00058754  00000-0  19795-2 0  9993
2 65370  53.1605  49.2719 0001284  96.6245 263.4902 15.30212136 33200
Epoch: 2026-04-04T06:41Z
TLE epoch observation values (Epoch: 2026-04-04T06:41:13.785Z)
Latitude
-0.00003°
Longitude
116.36374°
Altitude
476.178 km
Speed
7.629 km/s
True Right ascension
03h 17m 05s
True Declination
0° 00' 00"
Sunlit
Object was in daylight at epoch
Visualization orbit readout
Latitude
Unknown
Longitude
Unknown
Altitude
Unknown
Speed
Unknown
Apparent Right ascension
Unknown
Apparent Declination
Unknown
Sunlit
N/A
Visualization observer readout
Local Sidereal Time
19:30:39
Azimuth
Unknown
Elevation
Unknown
Doppler factor
Unknown
Orbital elements
Apogee altitude
476.315 km
Perigee altitude
474.555 km
Semi-major axis
6,853.572 km
Eccentricity
0.00013
Inclination
53.1605°
RAAN
49.2719°
Arg. of periapsis
96.6245°
True anomaly
263.47558°
Mean anomaly
263.4902°
Eccentric anomaly
263.48289°
Mean motion
3.82532 °/min
Orbital period
94.11 mins
BSTAR
0.0019795
Loading maneuver chart data...
Computing Atmospheric mass density...
Loading historical data...
Loading historical data...
Loading historical data...
Loading historical data...
Loading historical data...
Loading historical data...
Loading historical data...

Documentation

Showing up to 5 results
|